Appleton, WI

2:23 AM CDT on October 23, 2019 (GMT -0500)
Outagamie County Regional

Weather History for KATW - August, 2019

Change the Weather History Date:

Wednesday, August 7, 2019

  Actual Average Record
Temperature  
Mean Temperature 73 °F -  
Max Temperature 84 °F 80 °F 96 °F (2001)
Min Temperature 62 °F 61 °F 47 °F (1990)
Cooling Degree Days 8    
Growing Degree Days 23 (Base 50)    
Moisture  
Dew Point 59 °F    
Average Humidity 73    
Maximum Humidity 100    
Minimum Humidity 45    
Precipitation  
Precipitation 0.00 in - - ()
Sea Level Pressure  
Sea Level Pressure 29.78 in    
Wind  
Wind Speed 8 mph (WSW)    
Max Wind Speed 21 mph    
Max Gust Speed -    
Visibility 10 miles    
Events Rain , Thunderstorm    
Averages and records for this station are not official NWS values.
T = Trace of Precipitation, MM = Missing Value Source: NWS Daily Summary

Daily Weather History Graph

Daily Weather History Graph

Search for Another Location

Airport or City:

Astronomy

Aug. 07, 2019 Rise Set
Actual Time 5:48 AM CDT 8:10 PM CDT
Civil Twilight 5:15 AM CDT 8:43 PM CDT
Nautical Twilight 4:35 AM CDT 9:23 PM CDT
Astronomical Twilight 3:49 AM CDT 10:08 PM CDT
Moon 1:36 PM CDT (8/7) No Moon Set
Length of Visible Light 15h 27m
Length of Day
14h 22m
Waxing Crescent, 50% of the Moon is Illuminated
Aug 7
Waxing Crescent
Aug 7
First Quarter
Aug 15
Full
Aug 23
Last Quarter
Aug 30
New

Hourly Weather History & Observations

Time (CDT) Temp. Heat Index Dew Point Humidity Pressure Visibility Wind Dir Wind Speed Gust Speed Precip Events Conditions
12:15 AM 64.4 °F - 53.6 °F 68% 29.82 in 10.0 mi West 8.1 mph - N/A   Clear
12:35 AM 62.6 °F - 53.6 °F 72% 29.82 in 10.0 mi West 6.9 mph - N/A   Clear
12:55 AM 64.4 °F - 53.6 °F 68% 29.81 in 10.0 mi West 6.9 mph - N/A   Clear
1:15 AM 64.4 °F - 53.6 °F 68% 29.81 in 10.0 mi West 5.8 mph - N/A   Clear
1:35 AM 62.6 °F - 53.6 °F 72% 29.81 in 10.0 mi West 8.1 mph - N/A   Clear
1:55 AM 62.6 °F - 53.6 °F 72% 29.81 in 10.0 mi West 8.1 mph - N/A   Clear
2:15 AM 62.6 °F - 53.6 °F 72% 29.81 in 10.0 mi West 8.1 mph - N/A   Clear
2:35 AM 62.6 °F - 53.6 °F 72% 29.81 in 10.0 mi WSW 6.9 mph - N/A   Clear
2:55 AM 62.6 °F - 53.6 °F 72% 29.81 in 10.0 mi West 5.8 mph - N/A   Clear
3:15 AM 62.6 °F - 53.6 °F 72% 29.81 in 10.0 mi West 5.8 mph - N/A   Clear
3:35 AM 64.4 °F - 60.8 °F 88% 29.81 in 10.0 mi WSW 6.9 mph - N/A   Clear
3:55 AM 62.6 °F - 60.8 °F 94% 29.81 in 10.0 mi West 5.8 mph - N/A   Clear
4:15 AM 64.4 °F - 60.8 °F 88% 29.81 in 10.0 mi WSW 5.8 mph - N/A   Clear
4:35 AM 64.4 °F - 59.0 °F 83% 29.81 in 10.0 mi WSW 9.2 mph - N/A   Clear
4:55 AM 64.4 °F - 59.0 °F 83% 29.81 in 10.0 mi WSW 8.1 mph - N/A   Clear
5:15 AM 64.4 °F - 57.2 °F 77% 29.80 in 10.0 mi WSW 8.1 mph - N/A   Clear
5:20 AM 66.2 °F - 59.0 °F 78% 29.80 in 10.0 mi WSW 8.1 mph - N/A   Scattered Clouds
5:45 AM 66.2 °F - 57.2 °F 73% 29.81 in 10.0 mi WSW 8.1 mph - N/A   Scattered Clouds
6:45 AM 66.2 °F - 59.0 °F 78% 29.81 in 10.0 mi WSW 9.2 mph - N/A   Scattered Clouds
7:45 AM 68.0 °F - 59.0 °F 73% 29.81 in 10.0 mi WSW 6.9 mph - N/A   Scattered Clouds
9:45 AM 75.2 °F - 59.0 °F 57% 29.79 in 10.0 mi WSW 6.9 mph - N/A   Scattered Clouds
10:45 AM 78.8 °F - 60.8 °F 54% 29.79 in 10.0 mi WSW 5.8 mph - N/A   Scattered Clouds
11:45 AM 80.6 °F 81.1 °F 59.0 °F 48% 29.79 in 10.0 mi SW 10.4 mph - N/A   Scattered Clouds
12:45 PM 80.6 °F 80.8 °F 57.2 °F 45% 29.77 in 10.0 mi SW 16.1 mph - N/A   Mostly Cloudy
1:45 PM 82.4 °F 82.5 °F 59.0 °F 45% 29.75 in 10.0 mi SSW 16.1 mph - N/A   Mostly Cloudy
2:45 PM 84.2 °F 84.4 °F 60.8 °F 45% 29.73 in 10.0 mi SSW 13.8 mph - N/A   Mostly Cloudy
2:55 PM 80.6 °F 81.5 °F 60.8 °F 51% 29.73 in 7.0 mi SW 20.7 mph - N/A Rain Light Rain
3:45 PM 77.0 °F - 62.6 °F 61% 29.71 in 10.0 mi SSW 17.3 mph - N/A   Mostly Cloudy
4:45 PM 80.6 °F 81.8 °F 62.6 °F 54% 29.71 in 10.0 mi SW 15.0 mph - N/A   Mostly Cloudy
5:45 PM 78.8 °F - 60.8 °F 54% 29.71 in 10.0 mi SW 8.1 mph - N/A   Mostly Cloudy
6:45 PM 78.8 °F - 60.8 °F 54% 29.69 in 10.0 mi WSW 8.1 mph - N/A   Overcast
7:45 PM 68.0 °F - 60.8 °F 78% 29.69 in 7.0 mi North 6.9 mph - N/A Rain , Thunderstorm Light Thunderstorms and Rain
8:45 PM 66.2 °F - 64.4 °F 94% 29.71 in 10.0 mi Variable 4.6 mph - N/A Rain Light Rain
9:45 PM 66.2 °F - 64.4 °F 94% 29.73 in 10.0 mi SSW 6.9 mph - N/A   Mostly Cloudy
10:45 PM 66.2 °F - 66.2 °F 100% 29.74 in 10.0 mi WSW 10.4 mph - N/A   Mostly Cloudy
10:55 PM 64.4 °F - 64.4 °F 100% 29.74 in 10.0 mi WSW 9.2 mph - N/A   Overcast
11:15 PM 64.4 °F - 64.4 °F 100% 29.75 in 10.0 mi West 10.4 mph - N/A   Overcast
11:35 PM 64.4 °F - 62.6 °F 94% 29.76 in 10.0 mi West 9.2 mph - N/A   Overcast
11:55 PM 64.4 °F - 62.6 °F 94% 29.76 in 10.0 mi West 10.4 mph - N/A   Scattered Clouds